Weather History for Jackson, MS

Change the Weather History Date:

Wednesday, April 17, 2013

  Actual Average Record
Temperature  
Mean Temperature 78 °F 64 °F  
Max Temperature 87 °F 76 °F 91 °F (1925)
Min Temperature 68 °F 52 °F 37 °F (1999)
Degree Days  
Heating Degree Days 0 3  
Month to date heating degree days 67 80  
Since 1 July heating degree days 2210 2350  
Cooling Degree Days 13 3  
Month to date cooling degree days 61 36  
Year to date cooling degree days 78 73  
Growing Degree Days 28 (Base 50)    
Moisture  
Dew Point 67 °F    
Average Humidity 74    
Maximum Humidity 97    
Minimum Humidity 51    
Precipitation  
Precipitation 0.00 in 0.16 in 4.00 in (1900)
Month to date precipitation 2.37 3.01  
Year to date precipitation 25.40 17.78  
Sea Level Pressure  
Sea Level Pressure 30.02 in    
Wind  
Wind Speed 11 mph (SSE)    
Max Wind Speed 21 mph    
Max Gust Speed 28 mph    
Visibility 8 miles    
Events      
T = Trace of Precipitation, MM = Missing Value Source: NWS Daily Summary

Daily Weather History Graph

Daily Weather History Graph

Search for Another Location

Airport:

Trip Planner

Search our weather history database for the weather conditions in past years. The results will help you decide how hot, cold, wet, or windy it might be!

Date:

Astronomy

Apr. 17, 2013 Rise Set
Actual Time 6:28 AM CDT 7:31 PM CDT
Civil Twilight 6:03 AM CDT 7:56 PM CDT
Nautical Twilight 5:33 AM CDT 8:26 PM CDT
Astronomical Twilight 5:02 AM CDT 8:57 PM CDT
Moon 11:49 AM CDT (4/17) 1:02 AM CDT (4/17)
Length of Visible Light 13h 53m
Length of Day
13h 03m
Waxing Crescent, 42% of the Moon is Illuminated
Apr 17
Waxing Crescent
Apr 18
First Quarter
Apr 25
Full
May 2
Last Quarter
May 9
New

Hourly Weather History & Observations

Time (CDT) Temp. Heat Index Dew Point Humidity Pressure Visibility Wind Dir Wind Speed Gust Speed Precip Events Conditions
12:54 AM 71.1 °F - 68.0 °F 90% 30.06 in 10.0 mi SE 5.8 mph - N/A   Clear
1:54 AM 70.0 °F - 68.0 °F 93% 30.06 in 8.0 mi SE 4.6 mph - N/A   Clear
2:54 AM 69.1 °F - 68.0 °F 96% 30.04 in 6.0 mi SSE 5.8 mph - N/A   Clear
3:07 AM 69.8 °F - 68.0 °F 94% 30.06 in 6.0 mi SSE 5.8 mph - N/A   Scattered Clouds
3:16 AM 69.8 °F - 68.0 °F 94% 30.06 in 6.0 mi SSE 4.6 mph - N/A   Mostly Cloudy
3:54 AM 71.1 °F - 69.1 °F 93% 30.04 in 6.0 mi SSE 9.2 mph - N/A   Overcast
4:54 AM 71.1 °F - 68.0 °F 90% 30.04 in 6.0 mi SSE 5.8 mph - N/A   Overcast
5:54 AM 69.1 °F - 66.9 °F 93% 30.06 in 5.0 mi SSE 3.5 mph - N/A   Mostly Cloudy
6:01 AM 69.8 °F - 66.2 °F 88% 30.07 in 4.0 mi SE 3.5 mph - N/A   Scattered Clouds
6:44 AM 69.8 °F - 66.2 °F 88% 30.07 in 2.5 mi Calm Calm - N/A   Clear
6:54 AM 68.0 °F - 66.9 °F 96% 30.06 in 2.5 mi ESE 3.5 mph - N/A   Clear
7:08 AM 69.8 °F - 66.2 °F 88% 30.08 in 3.0 mi Calm Calm - N/A   Clear
7:14 AM 69.8 °F - 66.2 °F 88% 30.08 in 2.5 mi Calm Calm - N/A   Scattered Clouds
7:26 AM 69.8 °F - 66.2 °F 88% 30.08 in 3.0 mi Calm Calm - N/A   Partly Cloudy
7:54 AM 71.1 °F - 68.0 °F 90% 30.08 in 5.0 mi SE 4.6 mph - N/A   Partly Cloudy
8:54 AM 73.4 °F - 66.2 °F 78% 30.10 in 10.0 mi SE 5.8 mph - N/A   Clear
9:54 AM 75.9 °F - 66.9 °F 74% 30.09 in 10.0 mi SSE 10.4 mph - N/A   Partly Cloudy
10:54 AM 78.1 °F - 66.0 °F 66% 30.09 in 10.0 mi SSE 11.5 mph - N/A   Clear
11:54 AM 82.0 °F 84.5 °F 66.9 °F 60% 30.08 in 10.0 mi SE 12.7 mph 18.4 mph N/A   Partly Cloudy
12:54 PM 80.1 °F 82.1 °F 66.0 °F 62% 30.06 in 10.0 mi SSE 16.1 mph - N/A   Clear
1:54 PM 82.0 °F 84.5 °F 66.9 °F 60% 30.02 in 10.0 mi SSE 18.4 mph 24.2 mph N/A   Clear
2:54 PM 84.9 °F 87.6 °F 66.9 °F 55% 29.99 in 10.0 mi South 15.0 mph 21.9 mph N/A   Partly Cloudy
3:54 PM 86.0 °F 88.2 °F 66.0 °F 51% 29.96 in 10.0 mi South 16.1 mph 23.0 mph N/A   Scattered Clouds
4:54 PM 84.0 °F 86.3 °F 66.0 °F 55% 29.95 in 10.0 mi South 15.0 mph 21.9 mph N/A   Scattered Clouds
5:54 PM 84.0 °F 86.5 °F 66.9 °F 56% 29.94 in 10.0 mi SSE 11.5 mph 19.6 mph N/A   Partly Cloudy
6:54 PM 82.0 °F 84.5 °F 66.9 °F 60% 29.94 in 10.0 mi SSE 11.5 mph - N/A   Partly Cloudy
7:54 PM 79.0 °F - 66.9 °F 66% 29.93 in 10.0 mi SSE 9.2 mph - N/A   Partly Cloudy
8:54 PM 77.0 °F - 68.0 °F 74% 29.94 in 10.0 mi SSE 10.4 mph - N/A   Clear
9:54 PM 75.0 °F - 68.0 °F 79% 29.94 in 10.0 mi SSE 12.7 mph - N/A   Clear
10:54 PM 73.9 °F - 66.9 °F 79% 29.94 in 10.0 mi SSE 12.7 mph 23.0 mph N/A   Clear
11:35 PM 73.4 °F - 68.0 °F 83% 29.95 in 10.0 mi SSE 17.3 mph 25.3 mph N/A   Mostly Cloudy
11:54 PM 73.9 °F - 66.9 °F 79% 29.93 in 10.0 mi SSE 13.8 mph - N/A   Mostly Cloudy